📊 Raw Sensor Data
Showing records 44751 to 44775 of 85,041 total
| ID | Distance (ft) | Battery V | Battery A | Int Temp (°F) | Int Humid (%) | Ext Temp (°F) | Solar V | RSSI | SNR | Time Stamp |
|---|---|---|---|---|---|---|---|---|---|---|
| 40303 | 16.3 | 3.95 | 0 | 80 | 41 | 72 | 5.10 | -70 | 8 | 05/11/2025 02:00 PM |
| 40302 | 16.4 | 3.95 | 0 | 79 | 41 | 73 | 5.10 | -70 | 8 | 05/11/2025 01:45 PM |
| 40301 | 16.4 | 4.04 | 0 | 79 | 41 | 72 | 5.10 | -70 | 8 | 05/11/2025 01:30 PM |
| 40300 | 16.4 | 4.01 | 0 | 79 | 41 | 74 | 5.10 | -70 | 8 | 05/11/2025 01:15 PM |
| 40299 | 16.5 | 3.95 | 0 | 78 | 41 | 74 | 5.10 | -69 | 8 | 05/11/2025 01:00 PM |
| 40298 | 16.4 | 3.96 | 0 | 77 | 42 | 72 | 5.10 | -71 | 8 | 05/11/2025 12:45 PM |
| 40297 | 16.4 | 3.95 | 0 | 75 | 43 | 71 | 5.10 | -69 | 7 | 05/11/2025 12:30 PM |
| 40296 | 16.5 | 3.95 | 0 | 75 | 43 | 71 | 5.10 | -68 | 7 | 05/11/2025 12:15 PM |
| 40295 | 16.4 | 3.95 | 0 | 75 | 43 | 71 | 5.10 | -68 | 8 | 05/11/2025 12:00 PM |
| 40294 | 16.4 | 3.95 | 0 | 75 | 43 | 74 | 5.10 | -69 | 8 | 05/11/2025 11:45 AM |
| 40293 | 16.5 | 3.95 | 0 | 76 | 42 | 74 | 5.10 | -69 | 8 | 05/11/2025 11:30 AM |
| 40292 | 16.5 | 3.96 | 0 | 76 | 42 | 76 | 5.10 | -69 | 8 | 05/11/2025 11:15 AM |
| 40291 | 16.5 | 3.95 | 0 | 75 | 42 | 76 | 5.10 | -70 | 8 | 05/11/2025 11:00 AM |
| 40290 | 16.5 | 3.95 | 0 | 75 | 42 | 77 | 5.10 | -68 | 8 | 05/11/2025 10:45 AM |
| 40289 | 16.5 | 4.08 | 0 | 74 | 42 | 75 | 5.10 | -69 | 8 | 05/11/2025 10:30 AM |
| 40288 | 16.5 | 3.97 | 0 | 73 | 42 | 74 | 5.10 | -70 | 8 | 05/11/2025 10:15 AM |
| 40287 | 16.5 | 3.95 | 0 | 73 | 42 | 75 | 5.10 | -68 | 8 | 05/11/2025 10:00 AM |
| 40286 | 16.5 | 3.95 | 0 | 72 | 42 | 74 | 5.10 | -69 | 7 | 05/11/2025 09:45 AM |
| 40285 | 16.5 | 3.95 | 0 | 71 | 42 | 76 | 5.10 | -71 | 9 | 05/11/2025 09:30 AM |
| 40284 | 16.5 | 3.95 | 0 | 70 | 42 | 72 | 5.10 | -72 | 8 | 05/11/2025 09:15 AM |
| 40283 | 16.6 | 3.95 | 0 | 69 | 42 | 74 | 5.10 | -69 | 8 | 05/11/2025 09:00 AM |
| 40282 | 16.5 | 3.95 | 0 | 68 | 42 | 74 | 5.10 | -70 | 8 | 05/11/2025 08:45 AM |
| 40281 | 16.5 | 3.95 | 0 | 66 | 42 | 72 | 5.10 | -69 | 7 | 05/11/2025 08:30 AM |
| 40280 | 16.5 | 3.95 | 0 | 65 | 42 | 71 | 5.10 | -67 | 8 | 05/11/2025 08:15 AM |
| 40279 | -- | 3.95 | 0 | 64 | 41 | 67 | 5.10 | -70 | 9 | 05/11/2025 08:00 AM |